TimeCST,TemperatureF,Dew PointF,Humidity,Sea Level PressureIn,VisibilityMPH,Wind Direction,Wind SpeedMPH,Gust SpeedMPH,PrecipitationIn,Events,Conditions,WindDirDegrees,DateUTC
12:18 AM,46.4,37.4,71,30.18,10.0,NNW,4.6,-,N/A,,Overcast,330,2013-01-25 06:18:00
12:53 AM,46.9,37.9,71,30.21,10.0,North,4.6,-,N/A,,Overcast,350,2013-01-25 06:53:00
1:21 AM,46.4,37.4,71,30.16,10.0,Calm,Calm,-,N/A,,Overcast,0,2013-01-25 07:21:00
1:53 AM,46.9,37.9,71,30.19,10.0,Calm,Calm,-,N/A,,Overcast,0,2013-01-25 07:53:00
2:04 AM,46.4,37.4,71,30.17,10.0,NNW,4.6,-,N/A,,Overcast,340,2013-01-25 08:04:00
2:53 AM,46.9,37.9,71,30.16,10.0,Calm,Calm,-,N/A,,Overcast,0,2013-01-25 08:53:00
3:13 AM,46.4,39.2,76,30.12,10.0,South,5.8,-,N/A,,Overcast,180,2013-01-25 09:13:00
3:53 AM,48.0,41.0,77,30.13,10.0,SSW,5.8,-,N/A,,Overcast,200,2013-01-25 09:53:00
4:53 AM,54.0,52.0,93,30.12,9.0,SSW,15.0,-,N/A,,Overcast,200,2013-01-25 10:53:00
5:22 AM,55.4,53.6,94,30.09,10.0,SSW,16.1,-,N/A,,Overcast,200,2013-01-25 11:22:00
5:53 AM,57.0,55.0,93,30.11,10.0,SSW,17.3,23.0,N/A,,Overcast,200,2013-01-25 11:53:00
6:53 AM,59.0,55.9,90,30.12,10.0,SSW,18.4,26.5,N/A,,Overcast,200,2013-01-25 12:53:00
7:53 AM,59.0,55.9,90,30.13,10.0,SSW,17.3,25.3,N/A,,Overcast,200,2013-01-25 13:53:00
8:53 AM,60.1,55.9,86,30.17,10.0,SW,11.5,-,N/A,,Overcast,230,2013-01-25 14:53:00
9:38 AM,60.8,57.2,88,30.15,10.0,SW,15.0,-,N/A,,Overcast,220,2013-01-25 15:38:00
9:53 AM,61.0,57.0,87,30.18,10.0,SW,16.1,-,N/A,,Overcast,230,2013-01-25 15:53:00
10:18 AM,60.8,57.2,88,30.16,2.5,WSW,12.7,-,N/A,,Overcast,240,2013-01-25 16:18:00
10:26 AM,53.6,53.6,100,30.16,1.8,NW,10.4,-,N/A,,Overcast,320,2013-01-25 16:26:00
10:53 AM,51.1,50.0,96,30.19,1.8,NNW,8.1,-,N/A,,Overcast,340,2013-01-25 16:53:00
11:11 AM,48.2,48.2,100,30.17,1.8,NNW,12.7,-,N/A,,Overcast,330,2013-01-25 17:11:00
11:53 AM,44.1,43.0,96,30.19,1.8,North,12.7,-,0.00,Rain,Light Rain,350,2013-01-25 17:53:00
12:15 PM,44.6,42.8,93,30.16,2.0,North,11.5,-,0.00,Rain,Light Rain,350,2013-01-25 18:15:00
12:26 PM,44.6,42.8,93,30.15,1.8,North,11.5,-,0.00,Rain,Light Rain,360,2013-01-25 18:26:00
12:53 PM,43.0,41.0,93,30.18,2.0,NNE,11.5,-,0.01,Rain,Light Rain,20,2013-01-25 18:53:00
1:23 PM,42.8,42.8,100,30.15,3.0,North,9.2,-,0.00,Rain,Light Rain,10,2013-01-25 19:23:00
1:53 PM,43.0,41.0,93,30.17,2.5,North,10.4,-,0.00,Rain,Light Rain,10,2013-01-25 19:53:00
2:53 PM,43.0,42.1,97,30.18,1.8,North,8.1,-,0.01,Rain,Light Rain,10,2013-01-25 20:53:00
3:02 PM,42.8,41.0,93,30.15,2.5,North,10.4,-,0.00,Rain,Light Rain,10,2013-01-25 21:02:00
3:13 PM,42.8,41.0,93,30.15,3.0,North,8.1,-,0.00,Rain,Light Rain,10,2013-01-25 21:13:00
3:35 PM,42.8,41.0,93,30.15,2.5,NNE,6.9,-,0.00,Rain,Light Rain,20,2013-01-25 21:35:00
3:53 PM,43.0,42.1,97,30.18,2.0,North,6.9,-,0.01,Rain,Light Rain,10,2013-01-25 21:53:00
4:29 PM,42.8,42.8,100,30.15,3.0,NNE,6.9,-,0.00,,Overcast,30,2013-01-25 22:29:00
4:41 PM,42.8,42.8,100,30.15,1.8,NNE,5.8,-,0.00,Rain,Light Rain,30,2013-01-25 22:41:00
4:53 PM,43.0,42.1,97,30.18,1.8,North,9.2,-,0.00,Rain,Light Rain,10,2013-01-25 22:53:00
5:01 PM,42.8,42.8,100,30.16,2.0,NNE,8.1,-,0.01,Rain,Light Rain,20,2013-01-25 23:01:00
5:08 PM,42.8,42.8,100,30.17,1.5,NNE,10.4,-,0.01,Rain,Light Rain,20,2013-01-25 23:08:00
5:37 PM,42.8,42.8,100,30.18,2.5,North,10.4,-,0.02,Rain,Light Rain,10,2013-01-25 23:37:00
5:44 PM,42.8,41.0,93,30.18,3.0,North,9.2,-,0.02,Rain,Light Rain,10,2013-01-25 23:44:00
5:53 PM,43.0,41.0,93,30.22,4.0,North,9.2,-,0.02,Rain,Light Rain,360,2013-01-25 23:53:00
6:53 PM,42.1,41.0,96,30.23,6.0,North,8.1,-,0.00,,Overcast,360,2013-01-26 00:53:00
7:23 PM,42.8,41.0,93,30.21,7.0,North,9.2,-,N/A,,Overcast,10,2013-01-26 01:23:00
7:53 PM,43.0,39.9,89,30.24,7.0,North,8.1,-,N/A,,Overcast,360,2013-01-26 01:53:00
8:53 PM,43.0,39.9,89,30.24,6.0,NNE,8.1,-,N/A,,Overcast,30,2013-01-26 02:53:00
9:00 PM,42.8,39.2,87,30.21,7.0,NNE,6.9,-,N/A,,Overcast,30,2013-01-26 03:00:00
9:53 PM,43.0,39.9,89,30.25,7.0,NNE,8.1,-,N/A,,Overcast,30,2013-01-26 03:53:00
10:53 PM,43.0,39.0,86,30.25,8.0,NNE,8.1,-,N/A,,Overcast,20,2013-01-26 04:53:00
11:53 PM,42.1,39.0,89,30.26,7.0,NNE,10.4,-,N/A,,Overcast,30,2013-01-26 05:53:00